Regional Weather Roundup
Issued by NWS Newport/Morehead, NC

Current Version | Previous Version | Graphics & Text | Print | Product List | Glossary Off
Versions: 1 2 3 4 5 6 7 8 9 10 11 12 13 14 15 16 17 18 19 20 21 22 23 24 25 26 27 28 29 30 31 32 33 34 35 36 37 38 39 40 41 42 43 44 45 46 47 48 49 50

000
ASUS42 KMHX 040413
RWRMHX
WEATHER ROUNDUP FOR EASTERN NORTH CAROLINA
NATIONAL WEATHER SERVICE NEWPORT/MOREHEAD CITY NC
1200 AM EDT TUE AUG 04 2015

NOTE: "FAIR" INDICATES FEW OR NO CLOUDS BELOW 12,000 FEET
WITH NO SIGNIFICANT WEATHER AND/OR OBSTRUCTIONS TO VISIBILITY

NCZ015>017-031-032-045>047-102-103-040500-
NORTH COAST

CITY           SKY/WX    TMP DP  RH WIND       PRES   REMARKS
EDENTON          N/A     76  73  88 S10       29.97R
ELIZABETH CITY PTCLDY    77  74  90 S10       29.96R
KITTY HAWK     PTCLDY    78  73  84 S7        29.96S
MANTEO         PTCLDY    78  74  87 SW14      29.98S

$$

NCZ045>047-081-094-103-104-040500-
CENTRAL COAST

CITY           SKY/WX    TMP DP  RH WIND       PRES   REMARKS
FRISCO         MOCLDY    79  75  87 S14G20    30.00S
SWANQUARTER      N/A     79 N/A N/A S13G22    29.94S

$$

NCZ095-097-098-100-101-040500-
SOUTHERN COAST

CITY           SKY/WX    TMP DP  RH WIND       PRES   REMARKS
BEAUFORT       MOCLDY    80  77  90 S13       30.00R
CEDAR ISLAND     N/A     79 N/A N/A S8        30.03S
JACKSONVILLE   CLOUDY    79  75  87 S5        29.98S
PINEY ISLAND   PTCLDY   N/A N/A N/A S6        30.00R
WILMINGTON     MOCLDY    78  75  90 S6        29.98S


$$

NCZ011>013-027>030-043-044-078>080-089-090>093-098-040500-
COASTAL PLAIN

CITY           SKY/WX    TMP DP  RH WIND       PRES   REMARKS
AHOSKIE        CLEAR     75  71  85 S5        29.95R
CLINTON        CLEAR     75  75  99 CALM      29.98S
ELIZABETHTOWN  PTCLDY    77  76  95 CALM      29.98R
GOLDSBORO      CLEAR     76  74  94 S5        29.96R
GREENVILLE     CLEAR     77  73  88 SW9       29.99R
HAVELOCK       MOCLDY    78  75  90 S6        30.00R
KENANSVILLE    PTCLDY   N/A N/A N/A CALM      29.99R
KINSTON        CLEAR     75  73  92 S6        29.99R
NEW BERN       PTCLDY    77  73  87 S6        30.00R
RICHLANDS      PTCLDY    75  70  83 S3        29.99R
ROCKY MOUNT    CLEAR     78  72  81 S8        29.96R
WASHINGTON     CLEAR     75  73  93 S6        29.98S
WHITEVILLE     PTCLDY    76  72  86 CALM      29.97S

$$

AMZ130-135-150-152-154-156-158-170-250-252-270-ANZ085-086-088-633-658-670-040500-
MARINE OBSERVATIONS

STATION/POSITION TIME  TEMP    WIND        PRES    WAVE   SWELL
                       AIR SEA DIR/SP/G            HT/PER HT/PER
                 (UTC) (F)     (DEG/KT/KT) (MB)    (FT/S) (FT/S)
CHESAPEAKE LIGHT 0400   79     200/ 22/ 23 1013.7
64 E VA BEACH    0350   80 81  210/ 23/ 27 1013.8    6/ 6   2/11
DUCK             0300   78 65  200/ 16/ 20 1013.6
2 E DUCK         0311      68                N/A     2/12   2/12
OREGON INLET     0300   80 80  200/ 18/ 23 1015.0
13E OREGON INLT  0400      79                N/A     4/ 5   2/11
HATTERAS CG      0300   79 79  180/  5/ 11 1015.5
DIAMOND BUOY     0350   82 84  180/ 19/ 23 1015.9    5/ 7   2/11
CAPE LOOKOUT     0400   80     170/ 16/ 17 1015.6
BEAUFORT LAB     0300   81 80  190/ 14/ 15 1014.8
30 SE NEW RVR IN NOT AVBL
27 SE WRIGHTSVLE 0300   79 81  200/ 14/ 16   N/A
5 SE WRIGHTSVLE  0308   82 82  190/  8/ 12 1015.1
225 S CAPE HAT   0350   82 81  180/ 10/ 12 1018.3    5/ 6   5/ 6
41 SE CHARLESTON 0350   83 83  170/ 17/ 21 1012.8    6/ 7   2/12

$$


USA.gov is the U.S. government's official web portal to all federal, state and local government web resources and services.